sat.trackr.live / text

‹ back to catalog

STARLINK-2699

NORAD 48433 · 2021-040F

PAYLOAD ACTIVE UNKNOWN

§ Identity

Operator
Country
US
Launch date
2021-05-09
Launch site
AFETR
Launch vehicle
Mass (kg)
RCS (m²)

Purposes: comms

External: N2YO · Heavens-Above · Gunter

§ Orbital elements

Epoch: 2026-09-20T03:34:48.097056Z

Period
94.01 min
Inclination
53.1597°
Eccentricity
0.0001363
Mean motion
15.31703746 rev/d
Perigee alt
469.8 km
Apogee alt
471.7 km
Semi-major
6,848.9 km
B*
6.1829e-6
RAAN
327.6406°
Arg perigee
93.6438°
Mean anomaly
266.4719°
Rev number
29,682

§ Raw data

STARLINK-26991 48433U 21040F   26263.14916779 -.00000173  00000+0  61829-5 0  99942 48433  53.1597 327.6406 0001363  93.6438 266.4719 15.31703746296827

JSON: /api/v1/satellites/48433 · /tle

For live sub-satellite position, see the globe view (requires WebGL).

§ Visibility from observer

Set your observer location to see the next 7 days of passes ≥ 10°. The values pass through the URL so the page stays shareable.

No JS? Fill the form by hand. The geolocation button needs JavaScript.